Location: Broek
(53.2737°N, 5.9967°E)
Time: 21:22:47
(UTC+00:00)

Cosmos 1048 Rocket - Pass Details

Date: 10 October 2024
Orbit: 741 x 787 km, 74.0° (Epoch: 09 November)

Event Time Altitude Azimuth Distance (km) Brightness Sun altitude
Rises 18:35:02 0° 198° (SSW) 3,249 7.3 -16.4°
Reaches altitude 10° 18:37:26 10° 197° (SSW) 2,319 6.6 -16.7°
Maximum altitude 18:42:41 75° 112° (ESE) 801 3.9 -17.5°
Drops below altitude 10° 18:47:54 10° 29° (NNE) 2,305 6.3 -18.3°
Sets 18:50:16 0° 28° (NNE) 3,227 7.1 -18.6°
